175  
ASUS43 KMPX 290410  
RWRMN  
WEATHER ROUNDUP FOR MINNESOTA  
NATIONAL WEATHER SERVICE TWIN CITIES/CHANHASSEN MN  
1000 PM CST FRI NOV 28 2014  
 
NOTE: "FAIR" INDICATES FEW OR NO CLOUDS BELOW 12,000 FEET WITH NO  
SIGNIFICANT WEATHER AND/OR S TO VISIBILITY
. N/A MEANS  
CURRENT SKY AND/OR WEATHER CONDITIONS ARE NOT AVAILABLE.  
 
MNZ060>063-068>070-290500-  
TWIN CITIES METRO  
 
CITY SKY/WX TMP DP RH WIND PRES REMARKS
 
TWIN CITIES CLOUDY 23 18 81 SE10 29.74F WCI 12  
ST PAUL CLOUDY 23 18 81 E9 29.76F WCI 13  
CRYSTAL CLOUDY 25 18 74 E6 29.73F WCI 18  
BLAINE MOCLDY 23 19 86 E6 29.72F WCI 16  
LAKEVILLE CLOUDY 21 18 86 E6 29.72F WCI 14  
EDEN PRAIRIE CLOUDY 23 19 85 SE8 29.72F WCI 14  
SOUTH ST PAUL CLOUDY 25 19 80 SE3 29.74F  
LAKE ELMO MOCLDY 23 19 86 E5 29.75F WCI 17  

 
MNZ001>005-007-008-013>017-022>024-027-028-290500-  
NORTHWEST MINNESOTA  
 
CITY SKY/WX TMP DP RH WIND PRES REMARKS
 
BEMIDJI MOCLDY 16 11 80 SE13 29.63F WCI 2  
HALLOCK MOCLDY 18 12 79 S12 29.63F WCI 5  
ROSEAU CLOUDY 18 12 79 SE9 29.63S WCI 6  
WARROAD LGT SNOW 16 12 86 SE6 29.64F WCI 7  
THIEF RVR FALL CLOUDY 18 12 79 SE10 29.61F WCI 6  
CROOKSTON MOCLDY 19 14 79 S12 29.65S WCI 7  
FOSSTON MOCLDY 16 10 79 SE8 29.61F WCI 5  
DETROIT LAKES CLOUDY 18 14 86 S17 29.62F WCI 2  
MOORHEAD MOCLDY 19 18 93 SE14 29.62F WCI 6  
PARK RAPIDS CLOUDY 16 12 84 SE15 29.64F WCI 1  
MAHNOMEN CLOUDY 17 12 80 S12G17 29.59F WCI 4  

 
MNZ006-009>011-018-025>026-290500-  
NORTH CENTRAL MINNESOTA  
 
CITY SKY/WX TMP DP RH WIND PRES REMARKS
 
BAUDETTE LGT SNOW 16 12 84 SE6 29.64F FOG WCI 7  
FLAG ISLAND FLURRIES 14 12 92 SE7 29.63F WCI 4  
INTL FALLS FLURRIES 17 13 84 SE7 29.69F WCI 8  
WASKISH CLOUDY 18 12 79 SE10G17 29.65F WCI 6  
BIG FORK CLOUDY 18 10 73 S10 29.70F WCI 6  
LONGVILLE CLOUDY 16 12 86 SE12 29.69F WCI 3  
GRAND RAPIDS CLOUDY 16 10 79 SE10 29.69F WCI 3  
CRANE LAKE LGT SNOW 18 16 93 CALM 29.75S VSB 1  
ORR CLOUDY 18 12 79 SE7 29.68F WCI 8  
COOK FLURRIES 18 14 86 SE6 29.71S WCI 9  
WALKER CLOUDY 15 11 81 S9 29.65F WCI 4  

 
MNZ012-019>021-037-290500-  
NORTHEAST MINNESOTA  
 
CITY SKY/WX TMP DP RH WIND PRES REMARKS
 
DULUTH CLOUDY 17 12 80 SE9 29.75F WCI 6  
ELY LGT SNOW 18 16 93 S13 29.71F WCI 4  
HIBBING CLOUDY 17 11 77 S7 29.72F WCI 8  
EVELETH MIX PCPN 18 14 86 SE8 29.73F WCI 7  
DULUTH HARBOR CLOUDY 19 16 86 CALM 29.82F  
TWO HARBORS LGT SNOW 21 16 79 S3 29.76F  
SILVER BAY MOCLDY 21 16 79 S5 29.77S WCI 15  
GRAND MARAIS N/A 27 22 81 SE13G21 29.83F WCI 16  
G MARAIS ARPRT CLOUDY 19 16 86 SE7G16 29.74F WCI 10  

 
MNZ029>031-032-039>041-046>048-054>057-064-290500-  
WEST CENTRAL MINNESOTA  
 
CITY SKY/WX TMP DP RH WIND PRES REMARKS
 
FERGUS FALLS CLOUDY 19 12 73 SE13 29.66F WCI 7  
WHEATON CLOUDY 18 16 93 SE16 29.64F WCI 3  
MORRIS PTCLDY 19 16 86 SE16 29.62F WCI 5  
ALEXANDRIA CLOUDY 18 14 84 SE15 29.64F WCI 4  
ELBOW LAKE CLOUDY 19 15 86 SE14 29.62F WCI 5  
WADENA CLOUDY 16 10 79 SE14 29.64F WCI 1  
GLENWOOD PTCLDY 18 16 93 SE10 29.65F WCI 6  
APPLETON CLOUDY 21 18 86 SE12 29.64F WCI 9  
BENSON CLOUDY 19 18 93 S12G17 29.65F WCI 7  
ORTONVILLE CLOUDY 18 16 93 SE12 29.62F WCI 5  
MADISON MOCLDY 23 19 86 SE9 29.64F WCI 13  
WILLMAR FAIR 21 18 86 SE13 29.67F WCI 9  

 
MNZ033>034-036-042>043-049>051-058-059-290500-  
CENTRAL MINNESOTA  
 
CITY SKY/WX TMP DP RH WIND PRES REMARKS
 
ST CLOUD CLOUDY 21 14 74 SE6 29.71F WCI 13  
SAUK CENTRE MOCLDY 18 15 86 SE10 29.67F WCI 7  
PAYNESVILLE PTCLDY 17 15 91 NE7 29.69F WCI 8  
AITKIN CLOUDY 19 12 73 SE5 29.71F WCI 13  
PINE RIVER CLOUDY 16 12 86 SE10 29.72F WCI 3  
BRAINERD CLOUDY 16 12 84 SE6 29.72F WCI 7  
STAPLES CLOUDY 16 12 86 SE5 29.67F WCI 9  
LONG PRAIRIE CLOUDY 18 14 86 E9 29.67F WCI 6  
LITTLE FALLS CLOUDY 19 14 79 SE7 29.72F WCI 10  
LITCHFIELD PTCLDY 21 19 93 SE8 29.70F WCI 12  
BUFFALO MOCLDY 22 18 84 E3 29.74S  
MAPLE LAKE CLOUDY 22 19 89 E3 29.73S  

 
MNZ037-044-045-052-053-290500-  
EAST CENTRAL MINNESOTA  
 
CITY SKY/WX TMP DP RH WIND PRES REMARKS
 
PRINCETON CLOUDY 19 16 86 E6 29.73F WCI 11  
MORA N/A N/A N/A N/A MISG N/A  
CAMBRIDGE CLOUDY 21 12 68 E5 29.73F WCI 15  
RUSH CITY CLOUDY 19 15 84 E5 29.76F WCI 12  
MOOSE LAKE CLOUDY 19 14 79 SE3 29.74F  
HINCKLEY CLOUDY 19 14 79 CALM 29.76F  
CLOQUET CLOUDY 18 12 79 SE5 29.76R WCI 11  
MCGREGOR CLOUDY 19 14 79 SE9 29.73F WCI 9  

 
MNZ071>073-080-081-089-090-097-098-290500-  
SOUTHWEST MINNESOTA  
 
CITY SKY/WX TMP DP RH WIND PRES REMARKS
 
MONTEVIDEO CLOUDY 19 18 93 S12 29.67F WCI 7  
GRANITE FALLS PTCLDY 19 17 91 E5 29.68F WCI 12  
CANBY CLOUDY 19 18 95 SE6 29.65F WCI 11  
MARSHALL MOCLDY 18 12 79 SE7 29.63F WCI 8  
REDWOOD FALLS CLEAR 19 16 88 E7 29.67F WCI 10  
OLIVIA PTCLDY 21 18 86 E9 29.67F WCI 11  
PIPESTONE PTCLDY 23 21 93 SE9 29.58F FOG WCI 13  
WINDOM PTCLDY 19 18 93 CALM 29.64F  
WORTHINGTON PTCLDY 18 16 93 E5 29.62F WCI 11  
JACKSON PTCLDY 21 19 93 SE8 29.64F WCI 12  
TRACY PTCLDY 16 14 93 SE5 29.64F FOG WCI 8  
SLAYTON PTCLDY 17 17 98 CALM 29.61F FOG  

 
MNZ065>067-074>077-082>085-091>093-290500-  
SOUTH CENTRAL MINNESOTA  
 
CITY SKY/WX TMP DP RH WIND PRES REMARKS
 
MANKATO PTCLDY 23 18 80 SE12 29.69F WCI 12  
NEW ULM PTCLDY 19 18 93 E6 29.68F WCI 11  
ST JAMES PTCLDY 19 18 93 E6 29.69S WCI 11  
FAIRMONT PTCLDY 18 16 93 SE7 29.65F WCI 8  
GLENCOE CLOUDY 22 20 91 E7 29.70F WCI 14  
FARIBAULT MOCLDY 25 19 80 SE7 29.71F WCI 17  
OWATONNA PTCLDY 25 19 80 SE15 29.70F WCI 12  
WASECA PTCLDY 23 18 80 E12 29.71F WCI 12  
ALBERT LEA CLEAR 23 21 93 SE9 29.70F WCI 13  

 
MNZ078>079-086>088-094>096-290500-  
SOUTHEAST MINNESOTA  
 
CITY SKY/WX TMP DP RH WIND PRES REMARKS
 
ROCHESTER PTCLDY 21 18 88 SE12 29.73F WCI 9  
RED WING CLOUDY 25 19 80 SE9 29.75F WCI 15  
STANTON MOCLDY 26 20 79 SE5 29.72F WCI 20  
DODGE CENTER PTCLDY 21 21 100 SE12 29.71F WCI 9  
WINONA MOCLDY 25 21 86 S6 29.81F WCI 18  
AUSTIN CLEAR 19 18 93 E5 29.72F WCI 13  
PRESTON CLEAR 22 20 91 SE7 29.75F WCI 13  

 
ABBREVIATIONS USED IN REMARKS  
TC - TEMPERATURES IN CELSIUS  
WCI - WIND CHILL INDEX  
HX - HEAT INDEX  
VSB - VISIBILITY  

 
 
CLICK HERE TO GO TO PREVIOUS BULLETINS.

The Nexlab MN Page Main Text Page